This is the latest recevied weather packets stored in our database for station/object ENMS. If no packets are shown the sender has not sent any weather packets the latest 10 day(s).
| Time | Temp. | Humidity | Pressure | Rain* | Wind** | Luminosity | Snow |
|---|---|---|---|---|---|---|---|
| 1788645788 | 7.78° C | 10% | - | - | - | - | - |
| 1788643986 | 8.89° C | 93% | 1006 hPa | - | - | - | - |
| 1788642187 | 7.78° C | 93% | 1006 hPa | - | - | - | - |
| 1788640386 | 8.89° C | 93% | 1006 hPa | - | - | - | - |
| 1788638586 | 8.89° C | 93% | 1005 hPa | - | - | - | - |
| 1788636786 | 10° C | 87% | 1005 hPa | - | - | - | - |
| 1788634986 | 10° C | 93% | 1005 hPa | - | - | - | - |
| 1788633187 | 10.56° C | 87% | 1004 hPa | - | - | - | - |
| 1788631387 | 11.67° C | 87% | 1004 hPa | - | - | - | - |
| 1788629588 | 11.67° C | 87% | 1004 hPa | - | - | - | - |
| 1788627803 | 13.89° C | 76% | 1003 hPa | - | - | - | - |
| 1788625987 | 12.78° C | 81% | 1003 hPa | - | - | - | - |
| 1788624187 | 12.78° C | 81% | 1003 hPa | - | - | - | - |
| 1788622388 | 13.89° C | 76% | 1002 hPa | - | - | - | - |
| 1788618787 | 12.78° C | 81% | 1002 hPa | - | - | - | - |
| 1788616987 | 13.89° C | 76% | 1002 hPa | - | - | - | - |
| 1788615187 | 16.67° C | 55% | 1001 hPa | - | - | - | - |
| 1788613386 | 17.78° C | 51% | 1001 hPa | - | - | - | - |
| 1788611587 | 15° C | 67% | 1001 hPa | - | - | - | - |
| 1788609787 | 15.56° C | 55% | 1001 hPa | - | - | - | - |
| 1788607987 | 15.56° C | 58% | 1001 hPa | - | - | - | - |
| 1788606188 | 17.78° C | 48% | 1000 hPa | - | - | - | - |
| 1788604386 | 16.67° C | 51% | 1000 hPa | - | - | - | - |
| 1788602588 | 15.56° C | 63% | 1000 hPa | - | - | - | - |
| 1788600787 | 15° C | 67% | 1000 hPa | - | - | - | - |
* Rain since midnight (hover to see other rain measurements)
** Current wind speed in m/s (hover to see current wind gust speed)